FW3942 Weather Reports


time (UTC)temp
C
wind
direction
speed
KPH
gust
KPH
rain 1hr
cm
rain 24hr
cm
rain mn
cm
humidity
%
barometer
mb
20260504090119 2 303 25.7 37.0 0.05 0.69 0.15 95 978.9
20260504081547 2 261 17.7 25.7 0.08 0.64 0.10 95 977.1
20260504050020 5 54 4.8 12.9 0.00 0.53 0.00 85 975.9
20260504044532 5 84 8.0 19.3 0.00 0.53 0.00 84 976.4
20260504043019 5 113 3.2 24.1 0.00 0.53 0.00 84 976.6
20260504041509 6 122 12.9 25.7 0.00 0.53 0.00 84 976.8
20260504040006 6 124 12.9 24.1 0.00 0.53 0.00 85 977.4
20260504034505 6 161 16.1 22.5 0.00 0.53 0.00 85 977.9
20260504033003 6 231 3.2 22.5 0.00 0.53 0.00 85 978.1
20260504031501 6 235 6.4 22.5 0.00 0.53 0.00 86 978.1
20260504030058 6 49 4.8 24.1 0.00 0.53 0.00 86 978.5
20260504024605 5 53 20.9 35.4 0.00 0.53 0.53 85 978.2
20260504023055 6 86 17.7 35.4 0.00 0.53 0.53 84 979.6
20260504021553 5 36 32.2 49.9 0.00 0.53 0.53 85 980.5
20260504020051 5 255 12.9 37.0 0.00 0.53 0.53 85 981.3
20260504014551 5 47 32.2 69.2 0.00 0.53 0.53 84 980.8
20260504013052 5 112 45.1 93.3 0.00 0.53 0.53 85 980.3
20260504011550 6 59 53.1 86.9 0.00 0.53 0.53 86 981.0
20260504010054 6 125 51.5 77.2 0.05 0.53 0.53 87 981.5
20260504004544 5 115 54.7 99.8 0.05 0.53 0.53 87 981.2
20260504003042 5 84 56.3 93.3 0.08 0.53 0.53 87 981.9
20260504001559 5 72 51.5 82.1 0.08 0.53 0.53 88 983.5
20260504000040 5 94 43.5 78.9 0.05 0.51 0.51 87 984.4
20260503234534 5 59 14.5 59.5 0.05 0.48 0.48 87 987.0
20260503233031 5 47 20.9 45.1 0.08 0.46 0.46 88 988.4
20260503231529 5 87 12.9 51.5 0.13 0.46 0.46 89 990.2
20260503230025 5 132 9.7 35.4 0.15 0.46 0.46 92 992.0
20260503224522 4 35 25.7 38.6 0.15 0.43 0.43 92 992.5
20260503223018 3 41 32.2 48.3 0.18 0.38 0.38 91 993.5
20260503221528 3 8 17.7 25.7 0.18 0.33 0.33 90 994.8
20260503220018 4 347 16.1 24.1 0.15 0.30 0.30 90 994.9
20260503214515 3 323 9.7 20.9 0.10 0.25 0.25 90 995.6
20260503213026 4 34 16.1 51.5 0.05 0.20 0.20 90 995.0
20260503211516 4 43 11.3 41.8 0.05 0.15 0.15 91 996.2
20260503210009 4 17 29.0 45.1 0.10 0.15 0.15 90 996.3
20260503204505 5 8 27.4 38.6 0.13 0.15 0.15 87 997.2
20260503203002 5 18 24.1 37.0 0.15 0.15 0.15 86 998.1
20260503201559 6 11 20.9 27.4 0.10 0.10 0.10 85 999.0
20260503200057 6 45 8.0 20.9 0.05 0.05 0.05 84 999.3
20260503194555 6 49 17.7 30.6 0.05 0.05 0.05 80 1000.5
20260503193054 7 26 9.7 22.5 0.00 0.00 0.00 76 1001.2
20260503191546 7 119 20.9 30.6 0.00 0.00 0.00 71 1002.5
20260503190047 8 104 19.3 33.8 0.00 0.00 0.00 66 1003.0
20260503184544 9 85 24.1 38.6 0.00 0.00 0.00 61 1003.4
20260503183041 10 104 20.9 38.6 0.00 0.00 0.00 53 1004.1
20260503181612 10 89 20.9 40.2 0.00 0.00 0.00 47 1004.2
20260503180041 11 133 16.1 40.2 0.00 0.00 0.00 42 1004.7
20260503174537 11 86 24.1 40.2 0.00 0.00 0.00 41 1004.6
20260503173045 11 79 20.9 33.8 0.00 0.00 0.00 40 1005.7
20260503171530 10 121 19.3 32.2 0.00 0.00 0.00 45 1006.0